| time (UTC) | temp C | wind direction | speed KPH | gust KPH | rain 1hr cm | rain 24hr cm | rain mn cm | humidity % | barometer mb |
| 20260503200020 | 12 | 240 | 12.9 | 37.0 | 0.00 | 0.00 | 0.00 | 41 | 1011.6 |
| 20260503194522 | 12 | 271 | 9.7 | 30.6 | 0.00 | 0.00 | 0.00 | 41 | 1011.9 |
| 20260503193027 | 12 | 239 | 11.3 | 29.0 | 0.00 | 0.00 | 0.00 | 42 | 1011.9 |
| 20260503191517 | 12 | 232 | 12.9 | 32.2 | 0.00 | 0.00 | 0.00 | 41 | 1012.2 |
| 20260503190014 | 12 | 280 | 12.9 | 30.6 | 0.00 | 0.00 | 0.00 | 42 | 1012.3 |
| 20260503184559 | 11 | 287 | 11.3 | 30.6 | 0.00 | 0.00 | 0.00 | 41 | 1012.4 |
| 20260503183111 | 11 | 275 | 12.9 | 27.4 | 0.00 | 0.00 | 0.00 | 41 | 1012.7 |
| 20260503181534 | 11 | 308 | 19.3 | 32.2 | 0.00 | 0.00 | 0.00 | 41 | 1012.8 |
| 20260503180040 | 11 | 278 | 17.7 | 33.8 | 0.00 | 0.00 | 0.00 | 40 | 1012.9 |
| 20260503174514 | 11 | 297 | 14.5 | 20.9 | 0.00 | 0.00 | 0.00 | 40 | 1012.9 |
| 20260503173015 | 11 | 312 | 8.0 | 25.7 | 0.00 | 0.00 | 0.00 | 41 | 1013.1 |
| 20260503171610 | 11 | 308 | 14.5 | 29.0 | 0.00 | 0.00 | 0.00 | 41 | 1013.2 |
| 20260503140139 | 6 | 265 | 9.7 | 30.6 | 0.00 | 0.00 | 0.00 | 64 | 1014.8 |
| 20260503120125 | 1 | 312 | 8.0 | 14.5 | 0.00 | 0.00 | 0.00 | 84 | 1015.0 |
| 20260503081558 | -1 | 291 | 3.2 | 4.8 | 0.00 | 0.00 | 0.00 | 91 | 1014.0 |
| 20260503071551 | 0 | 291 | 1.6 | 4.8 | 0.00 | 0.03 | 0.00 | 86 | 1013.7 |
| 20260503054547 | 1 | 293 | 3.2 | 4.8 | 0.00 | 0.03 | 0.00 | 83 | 1014.0 |
| 20260503053038 | 1 | 292 | 3.2 | 4.8 | 0.00 | 0.03 | 0.00 | 83 | 1014.0 |
| 20260503051533 | 1 | 292 | 0.0 | 4.8 | 0.00 | 0.03 | 0.00 | 82 | 1014.2 |
| 20260503050033 | 1 | 293 | 3.2 | 4.8 | 0.00 | 0.03 | 0.03 | 82 | 1014.2 |
| 20260503044533 | 1 | 291 | 3.2 | 6.4 | 0.00 | 0.03 | 0.03 | 82 | 1014.3 |
| 20260503043032 | 1 | 291 | 3.2 | 6.4 | 0.00 | 0.03 | 0.03 | 81 | 1014.4 |
| 20260503041532 | 1 | 291 | 1.6 | 4.8 | 0.00 | 0.03 | 0.03 | 78 | 1014.4 |
| 20260503040039 | 1 | 291 | 1.6 | 4.8 | 0.00 | 0.03 | 0.03 | 77 | 1014.5 |
| 20260503034544 | 2 | 291 | 1.6 | 4.8 | 0.00 | 0.03 | 0.03 | 76 | 1014.5 |
| 20260503033038 | 2 | 291 | 1.6 | 4.8 | 0.00 | 0.03 | 0.03 | 75 | 1014.4 |
| 20260503031537 | 2 | 289 | 3.2 | 6.4 | 0.00 | 0.03 | 0.03 | 74 | 1014.4 |
| 20260503030014 | 2 | 291 | 1.6 | 4.8 | 0.00 | 0.03 | 0.03 | 74 | 1014.5 |
| 20260503024511 | 3 | 291 | 1.6 | 4.8 | 0.00 | 0.03 | 0.03 | 69 | 1014.5 |
| 20260503023054 | 3 | 292 | 1.6 | 4.8 | 0.00 | 0.03 | 0.03 | 69 | 1014.7 |
| 20260503021553 | 3 | 292 | 3.2 | 8.0 | 0.00 | 0.03 | 0.03 | 67 | 1014.5 |
| 20260503020040 | 3 | 293 | 3.2 | 6.4 | 0.00 | 0.03 | 0.03 | 66 | 1014.5 |
| 20260503014540 | 3 | 301 | 3.2 | 6.4 | 0.00 | 0.03 | 0.03 | 65 | 1014.4 |
| 20260503013018 | 4 | 304 | 3.2 | 6.4 | 0.00 | 0.03 | 0.03 | 62 | 1014.4 |
| 20260503011516 | 4 | 303 | 4.8 | 8.0 | 0.00 | 0.03 | 0.03 | 61 | 1014.3 |
| 20260503010100 | 4 | 293 | 3.2 | 8.0 | 0.00 | 0.03 | 0.03 | 59 | 1014.3 |
| 20260503004603 | 4 | 300 | 8.0 | 14.5 | 0.00 | 0.03 | 0.03 | 58 | 1014.1 |
| 20260503003141 | 5 | 322 | 3.2 | 12.9 | 0.00 | 0.03 | 0.03 | 57 | 1013.9 |
| 20260503001541 | 5 | 285 | 9.7 | 19.3 | 0.00 | 0.03 | 0.03 | 58 | 1013.9 |
| 20260503000029 | 5 | 298 | 8.0 | 16.1 | 0.00 | 0.08 | 0.03 | 57 | 1013.7 |
| 20260502234522 | 5 | 274 | 9.7 | 19.3 | 0.00 | 0.08 | 0.03 | 57 | 1013.6 |
| 20260502233004 | 5 | 274 | 6.4 | 12.9 | 0.00 | 0.08 | 0.03 | 59 | 1013.5 |
| 20260502231509 | 5 | 312 | 8.0 | 17.7 | 0.00 | 0.08 | 0.03 | 61 | 1013.4 |
| 20260502230052 | 5 | 293 | 4.8 | 14.5 | 0.00 | 0.13 | 0.03 | 62 | 1013.2 |
| 20260502224552 | 5 | 293 | 8.0 | 19.3 | 0.00 | 0.13 | 0.03 | 61 | 1013.2 |
| 20260502223051 | 5 | 204 | 6.4 | 12.9 | 0.00 | 0.13 | 0.03 | 63 | 1013.2 |
| 20260502221550 | 6 | 252 | 9.7 | 17.7 | 0.00 | 0.13 | 0.03 | 61 | 1013.1 |
| 20260502220059 | 6 | 277 | 6.4 | 20.9 | 0.00 | 0.23 | 0.03 | 63 | 1013.1 |
| 20260502214549 | 6 | 240 | 6.4 | 14.5 | 0.00 | 0.23 | 0.03 | 61 | 1013.0 |
| 20260502213050 | 6 | 285 | 0.0 | 12.9 | 0.00 | 0.23 | 0.03 | 62 | 1013.0 |
| 20260502211550 | 6 | 287 | 6.4 | 24.1 | 0.00 | 0.23 | 0.03 | 63 | 1013.0 |
| 20260502210030 | 6 | 266 | 11.3 | 22.5 | 0.00 | 0.28 | 0.03 | 63 | 1013.0 |
| 20260502204531 | 6 | 266 | 8.0 | 22.5 | 0.00 | 0.28 | 0.03 | 62 | 1012.8 |
| 20260502203011 | 7 | 346 | 8.0 | 25.7 | 0.00 | 0.28 | 0.03 | 61 | 1012.8 |
| 20260502201509 | 6 | 269 | 9.7 | 17.7 | 0.00 | 0.28 | 0.03 | 66 | 1012.9 |